Flag for Faroe Islands Weather past 2 weeks in Klaksvík, Faroe Islands, Faroe Islands

Now
53 °F

Rain showers. Low clouds.


Feels Like: 49 °F
Forecast: 53 / 55 °F
Wind: 10 mph from Northeast

Location: Thorshavn

Current Time: Sep 16, 2014 at 5:24:41 PM

Latest Report: Sep 16, 2014 at 4:00 PM


Visibility: 2 mi

Pressure: 30.18 "Hg

Humidity: 99%

Dew point: 53 °F

Location of KlaksvíkLocation

Historic Weather in Klaksvík — Graph

°F

Klaksvík temperature yesterday

Maximum temperature yesterday: 54 °F (at 1:00 PM)
Minimum temperature yesterday: 52 °F (at 8:00 AM)
Average temperature yesterday: 53 °F

Past Weeks' High & Low Weather Summary

 TemperatureHumidityPressure
High59 °F (Sep 5, 1:00 PM)100% (Sep 4, 10:00 PM)30.47 "Hg (Sep 4, 10:00 PM)
Low44 °F (Sep 7, 5:00 AM)69% (Sep 7, 11:00 AM)29.73 "Hg (Sep 1, 4:00 PM)
Average53 °F91%30.10 "Hg
* Reported Sep 1 4:00 PM — Sep 16 4:00 PM, Klaksvík, Weather by CustomWeather, © 2014

Note: Actual official high and low records may vary slightly from our data, if they occured in-between our weather recording intervals... More about our weather records

Advertising

Klaksvík weather history for previous 24 hours

 ConditionsComfort  
Time TempWeatherWind HumidityBarometerVisibility
4:00 PM
Sep 16
53 °FRain showers. Low clouds.10 mph99%30.18 "Hg2 mi
3:00 PM53 °FDrizzle. Dense fog.7 mph99%30.19 "Hg1 mi
2:00 PM54 °FFog.6 mph98%30.20 "Hg4 mi
1:00 PM53 °FLow clouds.5 mph98%30.22 "Hg3 mi
12:00 PM53 °FLight rain. Low clouds.5 mph100%30.22 "Hg3 mi
11:00 AM53 °FLow clouds.5 mph100%30.23 "Hg2 mi
10:00 AM53 °FFog.3 mph100%30.23 "Hg2 mi
9:00 AM52 °FLow clouds.2 mph100%30.24 "HgN/A
8:00 AM52 °FLow clouds.1 mph100%30.23 "Hg0 mi
7:00 AM51 °FDense fog.1 mph100%30.22 "Hg0 mi
6:00 AM51 °FDense fog.1 mph100%30.23 "Hg0 mi
5:00 AM51 °FPassing clouds.3 mph100%30.23 "Hg0 mi
4:00 AM51 °FDrizzle. Dense fog.3 mph99%30.25 "Hg1 mi
3:00 AM51 °FFog.2 mph96%30.25 "Hg6 mi
2:00 AM51 °FFog.5 mph97%30.25 "Hg4 mi
12:00 AM52 °FLow clouds.8 mph93%30.27 "Hg6 mi
11:00 PM
Sep 15
52 °FOvercast.6 mph93%30.27 "Hg6 mi
10:00 PM52 °FFog.6 mph94%30.28 "Hg6 mi
9:00 PM52 °FOvercast.9 mph94%30.29 "Hg6 mi
8:00 PM52 °FOvercast.8 mph93%30.28 "Hg7 mi
7:00 PM53 °FFog.8 mph94%30.28 "Hg6 mi
6:00 PM53 °FLow clouds.5 mph95%30.28 "Hg1 mi
5:00 PM53 °FFog.5 mph97%30.28 "Hg3 mi
Weather by CustomWeather, © 2014

See weather overviewHow to use our weather pages